Location: Chatou
(48.8898°N, 2.1586°E)
Time: 05:43:16
(UTC+00:00)

Genesis I - Pass Details

Date: 03 February 2023
Orbit: 466 x 516 km, 64.5° (Epoch: 21 March)

Event Time Altitude Azimuth Distance (km) Brightness Sun altitude
Rises 18:53:53 0° 214° (SSW) 2,638 7.3 -20.2°
Reaches altitude 10° 18:56:03 10° 212° (SSW) 1,757 6.3 -20.6°
Maximum altitude 18:59:59 77° 128° (SE) 544 3.1 -21.2°
Enters shadow 19:00:06 75° 104° (ESE) 547 3.0 -21.3°
